| time (UTC) | temp C | wind direction | speed KPH | gust KPH | rain 1hr cm | rain 24hr cm | rain mn cm | humidity % | barometer mb |
| 20260508023503 | 12 | 149 | 0.0 | 1.6 | 0.00 | 0.43 | 0.00 | 75 | 1007.1 |
| 20260508023003 | 12 | 149 | 1.6 | 3.2 | 0.00 | 0.46 | 0.00 | 74 | 1007.2 |
| 20260508022503 | 12 | 149 | 0.0 | 0.0 | 0.00 | 0.46 | 0.00 | 74 | 1007.2 |
| 20260508022003 | 12 | 149 | 0.0 | 0.0 | 0.00 | 0.51 | 0.00 | 73 | 1007.2 |
| 20260508021506 | 13 | 149 | 0.0 | 0.0 | 0.00 | 0.51 | 0.00 | 72 | 1007.1 |
| 20260508021003 | 13 | 149 | 0.0 | 0.0 | 0.00 | 0.53 | 0.00 | 72 | 1007.1 |
| 20260508020506 | 13 | 149 | 0.0 | 0.0 | 0.00 | 0.53 | 0.00 | 71 | 1007.1 |
| 20260508020003 | 13 | 149 | 0.0 | 0.0 | 0.00 | 0.53 | 0.00 | 71 | 1006.9 |
| 20260508015503 | 13 | 149 | 0.0 | 0.0 | 0.00 | 0.53 | 0.00 | 71 | 1006.9 |
| 20260508015003 | 13 | 149 | 0.0 | 0.0 | 0.00 | 0.53 | 0.00 | 70 | 1006.9 |
| 20260508014503 | 13 | 149 | 0.0 | 1.6 | 0.00 | 0.53 | 0.00 | 69 | 1006.7 |
| 20260508014003 | 13 | 149 | 1.6 | 3.2 | 0.00 | 0.53 | 0.00 | 68 | 1006.7 |
| 20260508013506 | 13 | 149 | 1.6 | 1.6 | 0.00 | 0.53 | 0.00 | 67 | 1006.7 |
| 20260508013003 | 13 | 123 | 0.0 | 3.2 | 0.00 | 0.53 | 0.00 | 66 | 1006.7 |
| 20260508012503 | 14 | 123 | 0.0 | 6.4 | 0.00 | 0.53 | 0.00 | 65 | 1006.7 |
| 20260508012006 | 14 | 111 | 4.8 | 4.8 | 0.00 | 0.53 | 0.00 | 64 | 1006.7 |
| 20260508011503 | 14 | 111 | 1.6 | 4.8 | 0.00 | 0.53 | 0.00 | 63 | 1006.6 |
| 20260508011003 | 14 | 78 | 1.6 | 4.8 | 0.00 | 0.53 | 0.00 | 61 | 1006.6 |
| 20260508010503 | 15 | 78 | 3.2 | 3.2 | 0.00 | 0.53 | 0.00 | 56 | 1006.6 |
| 20260508010003 | 15 | 78 | 1.6 | 3.2 | 0.00 | 0.53 | 0.00 | 54 | 1006.3 |
| 20260508005506 | 15 | 107 | 1.6 | 3.2 | 0.00 | 0.53 | 0.00 | 52 | 1006.3 |
| 20260508005003 | 15 | 107 | 1.6 | 6.4 | 0.00 | 0.53 | 0.00 | 52 | 1006.3 |
| 20260508004503 | 15 | 33 | 1.6 | 1.6 | 0.00 | 0.53 | 0.00 | 48 | 1006.1 |
| 20260508004003 | 16 | 33 | 0.0 | 1.6 | 0.00 | 0.53 | 0.00 | 47 | 1006.1 |
| 20260508003503 | 16 | 33 | 0.0 | 0.0 | 0.00 | 0.53 | 0.00 | 45 | 1006.1 |
| 20260508003003 | 16 | 33 | 0.0 | 0.0 | 0.00 | 0.53 | 0.00 | 44 | 1005.8 |
| 20260508002506 | 16 | 33 | 0.0 | 0.0 | 0.00 | 0.53 | 0.00 | 45 | 1005.8 |
| 20260508002003 | 16 | 33 | 0.0 | 1.6 | 0.00 | 0.53 | 0.00 | 45 | 1005.8 |
| 20260508001503 | 16 | 33 | 1.6 | 3.2 | 0.00 | 0.53 | 0.00 | 44 | 1005.7 |
| 20260508001003 | 16 | 33 | 0.0 | 3.2 | 0.00 | 0.53 | 0.00 | 40 | 1005.7 |
| 20260508000503 | 17 | 33 | 3.2 | 4.8 | 0.00 | 0.53 | 0.00 | 40 | 1005.7 |
| 20260508000006 | 17 | 13 | 0.0 | 0.0 | 0.00 | 0.53 | 0.00 | 39 | 1005.7 |
| 20260507235503 | 17 | 15 | 0.0 | 0.0 | 0.00 | 0.53 | 0.00 | 41 | 1005.7 |
| 20260507235006 | 17 | 341 | 0.0 | 4.8 | 0.00 | 0.53 | 0.00 | 40 | 1005.7 |
| 20260507234503 | 17 | 5 | 1.6 | 6.4 | 0.00 | 0.53 | 0.00 | 39 | 1005.6 |
| 20260507234003 | 17 | 323 | 3.2 | 4.8 | 0.00 | 0.53 | 0.00 | 38 | 1005.6 |
| 20260507233503 | 17 | 323 | 1.6 | 3.2 | 0.00 | 0.53 | 0.00 | 38 | 1005.6 |
| 20260507233003 | 17 | 323 | 1.6 | 4.8 | 0.00 | 0.53 | 0.00 | 39 | 1005.3 |
| 20260507232503 | 17 | 323 | 1.6 | 3.2 | 0.00 | 0.53 | 0.00 | 38 | 1005.3 |
| 20260507232002 | 17 | 323 | 0.0 | 3.2 | 0.00 | 0.53 | 0.00 | 39 | 1005.3 |
| 20260507231502 | 17 | 346 | 1.6 | 8.0 | 0.00 | 0.53 | 0.00 | 38 | 1005.4 |
| 20260507231003 | 17 | 11 | 4.8 | 8.0 | 0.00 | 0.53 | 0.00 | 37 | 1005.4 |
| 20260507230503 | 17 | 39 | 4.8 | 8.0 | 0.00 | 0.53 | 0.00 | 37 | 1005.4 |
| 20260507230003 | 17 | 285 | 3.2 | 6.4 | 0.00 | 0.53 | 0.00 | 36 | 1005.3 |
| 20260507225503 | 17 | 303 | 4.8 | 6.4 | 0.00 | 0.53 | 0.00 | 37 | 1005.3 |
| 20260507225002 | 17 | 325 | 1.6 | 9.7 | 0.00 | 0.53 | 0.00 | 37 | 1005.3 |
| 20260507224503 | 17 | 336 | 3.2 | 11.3 | 0.00 | 0.53 | 0.00 | 36 | 1005.6 |
| 20260507224003 | 17 | 342 | 1.6 | 9.7 | 0.00 | 0.53 | 0.00 | 36 | 1005.6 |
| 20260507223503 | 17 | 293 | 4.8 | 11.3 | 0.00 | 0.53 | 0.00 | 37 | 1005.6 |
| 20260507223003 | 17 | 292 | 4.8 | 11.3 | 0.00 | 0.53 | 0.00 | 36 | 1005.6 |
| 20260507222503 | 17 | 28 | 6.4 | 9.7 | 0.00 | 0.53 | 0.00 | 38 | 1005.6 |
| 20260507222003 | 17 | 277 | 1.6 | 8.0 | 0.00 | 0.53 | 0.00 | 37 | 1005.6 |
| 20260507221502 | 17 | 274 | 4.8 | 9.7 | 0.00 | 0.53 | 0.00 | 36 | 1005.6 |
| 20260507221002 | 18 | 19 | 4.8 | 12.9 | 0.00 | 0.53 | 0.00 | 36 | 1005.6 |
| 20260507220503 | 18 | 308 | 9.7 | 14.5 | 0.00 | 0.53 | 0.00 | 35 | 1005.6 |
| 20260507220003 | 18 | 347 | 6.4 | 11.3 | 0.00 | 0.53 | 0.00 | 36 | 1005.6 |
| 20260507215505 | 18 | 342 | 9.7 | 12.9 | 0.00 | 0.53 | 0.00 | 35 | 1005.6 |
| 20260507215002 | 18 | 0 | 3.2 | 12.9 | 0.00 | 0.53 | 0.00 | 35 | 1005.6 |
| 20260507214503 | 18 | 315 | 8.0 | 12.9 | 0.00 | 0.53 | 0.00 | 35 | 1005.6 |
| 20260507214002 | 18 | 289 | 4.8 | 17.7 | 0.00 | 0.53 | 0.00 | 34 | 1005.6 |
| 20260507213502 | 18 | 313 | 8.0 | 19.3 | 0.00 | 0.53 | 0.00 | 35 | 1005.6 |
| 20260507213007 | 18 | 297 | 11.3 | 12.9 | 0.00 | 0.53 | 0.00 | 34 | 1005.4 |
| 20260507212502 | 18 | 263 | 6.4 | 14.5 | 0.00 | 0.53 | 0.00 | 35 | 1005.4 |
| 20260507212002 | 18 | 227 | 3.2 | 14.5 | 0.00 | 0.53 | 0.00 | 34 | 1005.4 |
| 20260507211502 | 18 | 243 | 6.4 | 16.1 | 0.00 | 0.53 | 0.00 | 33 | 1005.2 |
| 20260507211005 | 18 | 341 | 11.3 | 19.3 | 0.00 | 0.53 | 0.00 | 35 | 1005.2 |
| 20260507210502 | 18 | 0 | 6.4 | 17.7 | 0.00 | 0.53 | 0.00 | 36 | 1005.2 |
| 20260507210002 | 18 | 234 | 8.0 | 17.7 | 0.00 | 0.53 | 0.00 | 36 | 1005.3 |
| 20260507205502 | 18 | 268 | 1.6 | 8.0 | 0.00 | 0.53 | 0.00 | 35 | 1005.3 |
| 20260507205002 | 18 | 258 | 4.8 | 8.0 | 0.00 | 0.53 | 0.00 | 35 | 1005.3 |
| 20260507204502 | 18 | 348 | 8.0 | 16.1 | 0.00 | 0.53 | 0.00 | 34 | 1005.4 |
| 20260507204002 | 18 | 271 | 11.3 | 20.9 | 0.00 | 0.53 | 0.00 | 35 | 1005.4 |
| 20260507203505 | 18 | 238 | 3.2 | 16.1 | 0.00 | 0.53 | 0.00 | 35 | 1005.4 |
| 20260507203002 | 18 | 309 | 12.9 | 12.9 | 0.00 | 0.53 | 0.00 | 36 | 1005.5 |
| 20260507202502 | 18 | 5 | 6.4 | 12.9 | 0.00 | 0.53 | 0.00 | 36 | 1005.5 |
| 20260507202002 | 18 | 17 | 11.3 | 14.5 | 0.00 | 0.53 | 0.00 | 38 | 1005.5 |
| 20260507201502 | 18 | 5 | 8.0 | 17.7 | 0.00 | 0.53 | 0.00 | 35 | 1005.6 |
| 20260507201005 | 18 | 17 | 3.2 | 16.1 | 0.00 | 0.53 | 0.00 | 34 | 1005.6 |
| 20260507200505 | 18 | 322 | 11.3 | 20.9 | 0.00 | 0.53 | 0.00 | 37 | 1005.6 |
| 20260507200002 | 18 | 202 | 9.7 | 19.3 | 0.00 | 0.53 | 0.00 | 36 | 1005.5 |
| 20260507195502 | 18 | 230 | 4.8 | 17.7 | 0.00 | 0.53 | 0.00 | 36 | 1005.5 |
| 20260507195002 | 18 | 201 | 8.0 | 12.9 | 0.00 | 0.53 | 0.00 | 35 | 1005.5 |
| 20260507194502 | 18 | 263 | 8.0 | 12.9 | 0.00 | 0.53 | 0.00 | 37 | 1005.8 |
| 20260507194002 | 18 | 309 | 6.4 | 24.1 | 0.00 | 0.53 | 0.00 | 38 | 1005.8 |
| 20260507193505 | 18 | 117 | 1.6 | 9.7 | 0.00 | 0.53 | 0.00 | 37 | 1005.8 |
| 20260507193002 | 18 | 48 | 4.8 | 22.5 | 0.00 | 0.53 | 0.00 | 38 | 1006.1 |
| 20260507192502 | 18 | 317 | 6.4 | 25.7 | 0.00 | 0.53 | 0.00 | 39 | 1006.1 |
| 20260507192005 | 18 | 321 | 11.3 | 14.5 | 0.00 | 0.53 | 0.00 | 38 | 1006.1 |
| 20260507191502 | 18 | 208 | 3.2 | 11.3 | 0.00 | 0.53 | 0.00 | 37 | 1006.2 |
| 20260507191002 | 18 | 261 | 12.9 | 17.7 | 0.00 | 0.53 | 0.00 | 39 | 1006.2 |
| 20260507190505 | 18 | 337 | 9.7 | 17.7 | 0.00 | 0.53 | 0.00 | 38 | 1006.2 |
| 20260507190003 | 18 | 291 | 9.7 | 14.5 | 0.00 | 0.53 | 0.00 | 40 | 1006.2 |
| 20260507185502 | 18 | 270 | 4.8 | 12.9 | 0.00 | 0.53 | 0.00 | 42 | 1006.2 |
| 20260507185002 | 18 | 224 | 1.6 | 16.1 | 0.00 | 0.53 | 0.00 | 36 | 1006.2 |
| 20260507184505 | 18 | 293 | 11.3 | 17.7 | 0.00 | 0.53 | 0.00 | 40 | 1006.7 |
| 20260507184002 | 18 | 338 | 6.4 | 9.7 | 0.00 | 0.53 | 0.00 | 42 | 1006.7 |
| 20260507183502 | 18 | 268 | 0.0 | 14.5 | 0.00 | 0.53 | 0.00 | 38 | 1006.7 |
| 20260507183002 | 18 | 309 | 14.5 | 16.1 | 0.00 | 0.53 | 0.00 | 43 | 1006.8 |
| 20260507182502 | 17 | 295 | 3.2 | 16.1 | 0.00 | 0.53 | 0.00 | 39 | 1006.8 |
| 20260507182002 | 17 | 348 | 11.3 | 19.3 | 0.00 | 0.53 | 0.00 | 40 | 1006.8 |
| 20260507181502 | 17 | 334 | 6.4 | 11.3 | 0.00 | 0.53 | 0.00 | 38 | 1006.7 |
| 20260507181002 | 18 | 96 | 8.0 | 19.3 | 0.00 | 0.53 | 0.00 | 37 | 1006.7 |
| 20260507180502 | 17 | 300 | 9.7 | 19.3 | 0.00 | 0.53 | 0.00 | 40 | 1006.7 |
| 20260507180002 | 17 | 355 | 6.4 | 24.1 | 0.00 | 0.53 | 0.00 | 39 | 1007.1 |
| 20260507175505 | 18 | 297 | 3.2 | 20.9 | 0.00 | 0.53 | 0.00 | 37 | 1007.1 |
| 20260507175002 | 18 | 15 | 9.7 | 20.9 | 0.00 | 0.53 | 0.00 | 41 | 1007.1 |
| 20260507174502 | 17 | 336 | 4.8 | 16.1 | 0.00 | 0.53 | 0.00 | 39 | 1007.2 |
| 20260507174002 | 17 | 351 | 16.1 | 22.5 | 0.00 | 0.53 | 0.00 | 39 | 1007.2 |
| 20260507173502 | 18 | 250 | 9.7 | 25.7 | 0.00 | 0.53 | 0.00 | 39 | 1007.2 |
| 20260507173005 | 18 | 293 | 6.4 | 12.9 | 0.00 | 0.53 | 0.00 | 39 | 1007.7 |
| 20260507172502 | 18 | 322 | 11.3 | 27.4 | 0.00 | 0.53 | 0.00 | 41 | 1007.7 |
| 20260507172002 | 17 | 318 | 4.8 | 17.7 | 0.00 | 0.53 | 0.00 | 43 | 1007.7 |
| 20260507171502 | 17 | 334 | 12.9 | 17.7 | 0.00 | 0.53 | 0.00 | 41 | 1007.7 |
| 20260507171005 | 17 | 251 | 6.4 | 20.9 | 0.00 | 0.53 | 0.00 | 42 | 1007.7 |
| 20260507170502 | 17 | 262 | 14.5 | 14.5 | 0.00 | 0.53 | 0.00 | 45 | 1007.7 |
| 20260507170002 | 17 | 340 | 12.9 | 16.1 | 0.00 | 0.53 | 0.00 | 46 | 1007.9 |
| 20260507165502 | 17 | 0 | 11.3 | 19.3 | 0.00 | 0.53 | 0.00 | 46 | 1007.9 |
| 20260507165002 | 17 | 306 | 12.9 | 22.5 | 0.00 | 0.58 | 0.00 | 42 | 1007.9 |
| 20260507164502 | 17 | 5 | 16.1 | 19.3 | 0.00 | 0.58 | 0.00 | 48 | 1008.0 |
| 20260507164002 | 17 | 228 | 3.2 | 17.7 | 0.00 | 0.58 | 0.00 | 44 | 1008.0 |
| 20260507163502 | 17 | 324 | 20.9 | 22.5 | 0.00 | 0.58 | 0.00 | 46 | 1008.0 |
| 20260507163002 | 17 | 306 | 11.3 | 17.7 | 0.00 | 0.58 | 0.00 | 47 | 1008.0 |
| 20260507162502 | 17 | 242 | 9.7 | 19.3 | 0.00 | 0.58 | 0.00 | 46 | 1008.0 |
| 20260507162005 | 16 | 5 | 8.0 | 16.1 | 0.00 | 0.58 | 0.00 | 48 | 1008.0 |
| 20260507161502 | 16 | 329 | 16.1 | 17.7 | 0.00 | 0.58 | 0.00 | 47 | 1008.5 |
| 20260507161002 | 16 | 296 | 11.3 | 19.3 | 0.00 | 0.58 | 0.00 | 49 | 1008.5 |
| 20260507160502 | 16 | 321 | 9.7 | 16.1 | 0.00 | 0.58 | 0.00 | 50 | 1008.5 |
| 20260507160005 | 16 | 5 | 8.0 | 20.9 | 0.00 | 0.58 | 0.00 | 48 | 1008.7 |
| 20260507155502 | 16 | 313 | 6.4 | 16.1 | 0.00 | 0.58 | 0.00 | 47 | 1008.7 |
| 20260507155005 | 16 | 25 | 6.4 | 20.9 | 0.00 | 0.61 | 0.00 | 50 | 1008.7 |
| 20260507154504 | 16 | 67 | 11.3 | 12.9 | 0.00 | 0.61 | 0.00 | 54 | 1008.9 |
| 20260507154002 | 16 | 296 | 8.0 | 20.9 | 0.00 | 0.61 | 0.00 | 53 | 1008.9 |
| 20260507153502 | 16 | 0 | 4.8 | 19.3 | 0.00 | 0.61 | 0.00 | 51 | 1008.9 |
| 20260507153002 | 16 | 343 | 9.7 | 19.3 | 0.00 | 0.61 | 0.00 | 50 | 1009.2 |
| 20260507152502 | 15 | 299 | 11.3 | 12.9 | 0.00 | 0.61 | 0.00 | 58 | 1009.2 |
| 20260507152002 | 15 | 313 | 6.4 | 16.1 | 0.00 | 0.61 | 0.00 | 60 | 1009.2 |
| 20260507151501 | 15 | 321 | 6.4 | 17.7 | 0.00 | 0.61 | 0.00 | 56 | 1009.2 |
| 20260507151002 | 14 | 325 | 4.8 | 19.3 | 0.00 | 0.61 | 0.00 | 56 | 1009.2 |
| 20260507150501 | 14 | 38 | 3.2 | 14.5 | 0.00 | 0.61 | 0.00 | 60 | 1009.2 |
| 20260507150005 | 14 | 312 | 11.3 | 22.5 | 0.00 | 0.61 | 0.00 | 60 | 1009.3 |
| 20260507145501 | 14 | 317 | 6.4 | 12.9 | 0.00 | 0.61 | 0.00 | 62 | 1009.3 |
| 20260507145002 | 13 | 304 | 6.4 | 16.1 | 0.00 | 0.61 | 0.00 | 66 | 1009.3 |
| 20260507144501 | 13 | 5 | 1.6 | 11.3 | 0.00 | 0.61 | 0.00 | 66 | 1009.5 |
| 20260507144004 | 13 | 295 | 3.2 | 17.7 | 0.00 | 0.61 | 0.00 | 64 | 1009.5 |
| 20260507143501 | 13 | 326 | 6.4 | 12.9 | 0.00 | 0.61 | 0.00 | 68 | 1009.5 |
| 20260507143001 | 13 | 298 | 11.3 | 20.9 | 0.00 | 0.61 | 0.00 | 69 | 1009.4 |
| 20260507142504 | 13 | 316 | 14.5 | 14.5 | 0.00 | 0.61 | 0.00 | 71 | 1009.4 |
| 20260507142002 | 13 | 292 | 11.3 | 11.3 | 0.00 | 0.61 | 0.00 | 71 | 1009.4 |
| 20260507141502 | 13 | 0 | 3.2 | 14.5 | 0.00 | 0.61 | 0.00 | 74 | 1009.4 |
| 20260507141001 | 12 | 345 | 4.8 | 14.5 | 0.00 | 0.61 | 0.00 | 75 | 1009.4 |
| 20260507140501 | 12 | 337 | 6.4 | 14.5 | 0.00 | 0.61 | 0.00 | 76 | 1009.4 |
| 20260507140005 | 12 | 338 | 4.8 | 11.3 | 0.00 | 0.61 | 0.00 | 77 | 1009.7 |
| 20260507135502 | 12 | 321 | 1.6 | 11.3 | 0.00 | 0.61 | 0.00 | 78 | 1009.7 |
| 20260507135001 | 12 | 334 | 8.0 | 12.9 | 0.00 | 0.61 | 0.00 | 80 | 1009.7 |
| 20260507134501 | 12 | 326 | 9.7 | 17.7 | 0.00 | 0.61 | 0.00 | 80 | 1009.4 |
| 20260507134001 | 12 | 291 | 9.7 | 12.9 | 0.00 | 0.61 | 0.00 | 82 | 1009.4 |
| 20260507133501 | 11 | 310 | 6.4 | 12.9 | 0.00 | 0.61 | 0.00 | 84 | 1009.4 |
| 20260507133001 | 11 | 284 | 8.0 | 11.3 | 0.00 | 0.61 | 0.00 | 84 | 1009.4 |
| 20260507132501 | 11 | 288 | 8.0 | 11.3 | 0.00 | 0.61 | 0.00 | 84 | 1009.4 |
| 20260507132001 | 11 | 340 | 6.4 | 12.9 | 0.00 | 0.61 | 0.00 | 87 | 1009.4 |
| 20260507131502 | 11 | 44 | 4.8 | 12.9 | 0.00 | 0.61 | 0.00 | 87 | 1009.6 |
| 20260507131001 | 11 | 312 | 8.0 | 9.7 | 0.00 | 0.61 | 0.00 | 87 | 1009.6 |
| 20260507130501 | 11 | 272 | 8.0 | 14.5 | 0.00 | 0.61 | 0.00 | 88 | 1009.6 |
| 20260507130001 | 11 | 315 | 3.2 | 9.7 | 0.00 | 0.61 | 0.00 | 88 | 1009.7 |
| 20260507125504 | 11 | 315 | 6.4 | 8.0 | 0.00 | 0.61 | 0.00 | 89 | 1009.7 |
| 20260507125001 | 11 | 261 | 3.2 | 9.7 | 0.00 | 0.61 | 0.00 | 89 | 1009.7 |
| 20260507124501 | 11 | 260 | 4.8 | 9.7 | 0.00 | 0.61 | 0.00 | 89 | 1009.6 |
| 20260507124001 | 11 | 324 | 8.0 | 8.0 | 0.00 | 0.61 | 0.00 | 89 | 1009.6 |
| 20260507123501 | 11 | 317 | 4.8 | 8.0 | 0.00 | 0.61 | 0.00 | 89 | 1009.6 |
| 20260507123001 | 11 | 294 | 1.6 | 9.7 | 0.00 | 0.61 | 0.00 | 89 | 1009.5 |
| 20260507122504 | 11 | 268 | 6.4 | 9.7 | 0.00 | 0.61 | 0.00 | 89 | 1009.5 |
| 20260507122001 | 11 | 292 | 3.2 | 9.7 | 0.00 | 0.61 | 0.00 | 90 | 1009.5 |
| 20260507121504 | 11 | 312 | 3.2 | 9.7 | 0.00 | 0.61 | 0.00 | 90 | 1009.4 |
| 20260507121001 | 10 | 291 | 3.2 | 8.0 | 0.00 | 0.61 | 0.00 | 90 | 1009.4 |
| 20260507120501 | 11 | 290 | 4.8 | 8.0 | 0.00 | 0.61 | 0.00 | 90 | 1009.4 |
| 20260507120001 | 11 | 272 | 3.2 | 6.4 | 0.00 | 0.61 | 0.00 | 91 | 1009.4 |
| 20260507115501 | 11 | 271 | 4.8 | 9.7 | 0.00 | 0.61 | 0.00 | 92 | 1009.4 |
| 20260507115004 | 11 | 274 | 3.2 | 8.0 | 0.00 | 0.61 | 0.00 | 91 | 1009.4 |
| 20260507114503 | 11 | 321 | 3.2 | 6.4 | 0.00 | 0.61 | 0.00 | 91 | 1009.3 |
| 20260507114001 | 10 | 242 | 4.8 | 6.4 | 0.00 | 0.61 | 0.00 | 92 | 1009.3 |
| 20260507113504 | 10 | 321 | 1.6 | 8.0 | 0.00 | 0.61 | 0.00 | 92 | 1009.3 |
| 20260507113001 | 10 | 284 | 3.2 | 9.7 | 0.00 | 0.61 | 0.00 | 92 | 1009.1 |
| 20260507112501 | 10 | 314 | 3.2 | 6.4 | 0.00 | 0.61 | 0.00 | 92 | 1009.1 |
| 20260507112001 | 10 | 277 | 1.6 | 9.7 | 0.00 | 0.61 | 0.00 | 92 | 1009.1 |
| 20260507111502 | 10 | 269 | 0.0 | 6.4 | 0.00 | 0.61 | 0.00 | 92 | 1008.6 |
| 20260507111001 | 10 | 261 | 0.0 | 6.4 | 0.00 | 0.61 | 0.00 | 92 | 1008.6 |
| 20260507110501 | 10 | 289 | 0.0 | 8.0 | 0.00 | 0.61 | 0.00 | 92 | 1008.6 |
| 20260507110004 | 10 | 292 | 0.0 | 4.8 | 0.00 | 0.61 | 0.00 | 92 | 1008.7 |
| 20260507105501 | 10 | 274 | 4.8 | 4.8 | 0.00 | 0.61 | 0.00 | 92 | 1008.7 |
| 20260507105001 | 10 | 240 | 0.0 | 3.2 | 0.00 | 0.61 | 0.00 | 92 | 1008.7 |
| 20260507104504 | 10 | 240 | 0.0 | 3.2 | 0.00 | 0.61 | 0.00 | 92 | 1008.4 |
| 20260507104004 | 10 | 240 | 3.2 | 3.2 | 0.00 | 0.61 | 0.00 | 92 | 1008.4 |
| 20260507103501 | 10 | 277 | 0.0 | 4.8 | 0.00 | 0.61 | 0.00 | 92 | 1008.4 |
| 20260507103001 | 10 | 277 | 0.0 | 0.0 | 0.00 | 0.61 | 0.00 | 92 | 1008.1 |
| 20260507102501 | 10 | 277 | 0.0 | 3.2 | 0.00 | 0.61 | 0.00 | 92 | 1008.1 |
| 20260507102006 | 10 | 277 | 0.0 | 1.6 | 0.00 | 0.61 | 0.00 | 91 | 1008.1 |
| 20260507101501 | 10 | 277 | 0.0 | 3.2 | 0.00 | 0.61 | 0.00 | 91 | 1008.3 |
| 20260507101001 | 10 | 277 | 0.0 | 3.2 | 0.00 | 0.61 | 0.00 | 91 | 1008.3 |
| 20260507100501 | 10 | 277 | 0.0 | 3.2 | 0.00 | 0.61 | 0.00 | 91 | 1008.3 |
| 20260507100001 | 10 | 277 | 3.2 | 4.8 | 0.00 | 0.61 | 0.00 | 91 | 1008.1 |
| 20260507095501 | 10 | 263 | 3.2 | 3.2 | 0.00 | 0.61 | 0.00 | 91 | 1008.1 |
| 20260507095001 | 10 | 250 | 0.0 | 0.0 | 0.00 | 0.61 | 0.00 | 91 | 1008.1 |
| 20260507094504 | 10 | 250 | 0.0 | 0.0 | 0.00 | 0.61 | 0.00 | 91 | 1007.9 |
| 20260507094001 | 10 | 250 | 0.0 | 0.0 | 0.00 | 0.61 | 0.00 | 91 | 1007.9 |
| 20260507093501 | 10 | 250 | 0.0 | 0.0 | 0.00 | 0.61 | 0.00 | 91 | 1007.9 |
| 20260507093004 | 10 | 250 | 0.0 | 3.2 | 0.00 | 0.61 | 0.00 | 91 | 1007.8 |
| 20260507092502 | 10 | 250 | 0.0 | 3.2 | 0.00 | 0.61 | 0.00 | 91 | 1007.8 |
| 20260507092001 | 10 | 250 | 1.6 | 4.8 | 0.00 | 0.61 | 0.00 | 91 | 1007.8 |
| 20260507091501 | 10 | 295 | 4.8 | 6.4 | 0.00 | 0.61 | 0.00 | 91 | 1007.7 |
| 20260507091001 | 10 | 283 | 1.6 | 6.4 | 0.00 | 0.61 | 0.00 | 91 | 1007.7 |
| 20260507090504 | 10 | 300 | 6.4 | 9.7 | 0.00 | 0.61 | 0.00 | 91 | 1007.7 |
| 20260507090001 | 10 | 250 | 1.6 | 9.7 | 0.00 | 0.61 | 0.00 | 91 | 1007.7 |
| 20260507085501 | 10 | 277 | 4.8 | 8.0 | 0.00 | 0.61 | 0.00 | 90 | 1007.7 |
| 20260507085001 | 10 | 303 | 6.4 | 9.7 | 0.00 | 0.61 | 0.00 | 90 | 1007.7 |
| 20260507084501 | 10 | 299 | 6.4 | 9.7 | 0.00 | 0.61 | 0.00 | 90 | 1007.7 |
| 20260507084001 | 10 | 271 | 1.6 | 9.7 | 0.00 | 0.61 | 0.00 | 90 | 1007.7 |
| 20260507083504 | 10 | 305 | 4.8 | 6.4 | 0.00 | 0.61 | 0.00 | 90 | 1007.7 |
| 20260507083001 | 10 | 297 | 3.2 | 9.7 | 0.00 | 0.61 | 0.00 | 90 | 1007.8 |
| 20260507082504 | 10 | 321 | 8.0 | 11.3 | 0.00 | 0.61 | 0.00 | 90 | 1007.8 |
| 20260507082001 | 10 | 281 | 3.2 | 9.7 | 0.00 | 0.61 | 0.00 | 89 | 1007.8 |
| 20260507081501 | 10 | 319 | 6.4 | 12.9 | 0.00 | 0.61 | 0.00 | 90 | 1008.0 |
| 20260507081001 | 10 | 298 | 6.4 | 11.3 | 0.00 | 0.61 | 0.00 | 89 | 1008.0 |
| 20260507080501 | 10 | 296 | 9.7 | 16.1 | 0.00 | 0.61 | 0.00 | 90 | 1008.0 |
| 20260507080001 | 10 | 274 | 6.4 | 11.3 | 0.00 | 0.58 | 0.00 | 90 | 1008.3 |
| 20260507075501 | 10 | 323 | 1.6 | 14.5 | 0.00 | 0.58 | 0.00 | 90 | 1008.3 |
| 20260507075004 | 10 | 299 | 6.4 | 17.7 | 0.00 | 0.58 | 0.00 | 89 | 1008.3 |
| 20260507074501 | 11 | 309 | 8.0 | 17.7 | 0.00 | 0.58 | 0.00 | 89 | 1008.2 |
| 20260507074001 | 11 | 296 | 9.7 | 17.7 | 0.00 | 0.58 | 0.00 | 89 | 1008.2 |
| 20260507073500 | 11 | 307 | 12.9 | 14.5 | 0.00 | 0.58 | 0.00 | 89 | 1008.2 |
| 20260507073004 | 11 | 309 | 9.7 | 14.5 | 0.00 | 0.58 | 0.00 | 89 | 1008.2 |
| 20260507072501 | 11 | 305 | 8.0 | 12.9 | 0.00 | 0.58 | 0.00 | 89 | 1008.2 |
| 20260507072001 | 11 | 302 | 8.0 | 14.5 | 0.00 | 0.58 | 0.00 | 89 | 1008.2 |
| 20260507071501 | 11 | 276 | 14.5 | 16.1 | 0.00 | 0.58 | 0.00 | 89 | 1007.7 |
| 20260507071001 | 11 | 286 | 3.2 | 19.3 | 0.05 | 0.58 | 0.00 | 89 | 1007.7 |
| 20260507070501 | 11 | 278 | 14.5 | 17.7 | 0.05 | 0.58 | 0.00 | 88 | 1007.8 |
| 20260507070001 | 11 | 303 | 8.0 | 16.1 | 0.05 | 0.58 | 0.00 | 89 | 1008.1 |
| 20260507065501 | 11 | 303 | 6.4 | 9.7 | 0.08 | 0.58 | 0.00 | 89 | 1008.1 |
| 20260507065001 | 11 | 273 | 4.8 | 9.7 | 0.20 | 0.58 | 0.00 | 88 | 1008.1 |
| 20260507064500 | 11 | 321 | 3.2 | 9.7 | 0.25 | 0.58 | 0.00 | 88 | 1008.3 |
| 20260507064003 | 11 | 296 | 6.4 | 6.4 | 0.38 | 0.53 | 0.00 | 88 | 1008.3 |
| 20260507063501 | 11 | 229 | 0.0 | 8.0 | 0.38 | 0.53 | 0.00 | 87 | 1008.3 |
| 20260507063001 | 12 | 263 | 3.2 | 8.0 | 0.38 | 0.53 | 0.00 | 87 | 1007.8 |
| 20260507062501 | 12 | 324 | 1.6 | 11.3 | 0.38 | 0.53 | 0.00 | 87 | 1007.8 |
| 20260507062001 | 12 | 256 | 3.2 | 11.3 | 0.38 | 0.53 | 0.00 | 86 | 1007.8 |
| 20260507061502 | 12 | 305 | 8.0 | 14.5 | 0.38 | 0.53 | 0.00 | 85 | 1007.7 |
| 20260507061000 | 12 | 268 | 6.4 | 9.7 | 0.33 | 0.51 | 0.00 | 85 | 1007.7 |
| 20260507060500 | 12 | 263 | 6.4 | 14.5 | 0.33 | 0.51 | 0.00 | 84 | 1007.7 |
| 20260507060000 | 12 | 304 | 9.7 | 12.9 | 0.33 | 0.51 | 0.00 | 84 | 1008.3 |
| 20260507055500 | 13 | 321 | 3.2 | 11.3 | 0.30 | 0.46 | 0.00 | 83 | 1008.3 |
| 20260507055000 | 13 | 168 | 6.4 | 19.3 | 0.18 | 0.36 | 0.00 | 83 | 1008.3 |
| 20260507054500 | 13 | 286 | 12.9 | 19.3 | 0.13 | 0.30 | 0.00 | 82 | 1006.8 |
| 20260507054000 | 13 | 313 | 4.8 | 14.5 | 0.00 | 0.18 | 0.00 | 80 | 1006.8 |
| 20260507053500 | 13 | 318 | 4.8 | 8.0 | 0.00 | 0.18 | 0.00 | 79 | 1006.8 |
| 20260507053000 | 13 | 34 | 1.6 | 6.4 | 0.00 | 0.18 | 0.00 | 79 | 1006.9 |
| 20260507052500 | 13 | 318 | 6.4 | 11.3 | 0.00 | 0.18 | 0.00 | 78 | 1006.9 |
| 20260507052000 | 13 | 293 | 8.0 | 11.3 | 0.00 | 0.18 | 0.00 | 78 | 1006.9 |
| 20260507051500 | 13 | 336 | 4.8 | 11.3 | 0.00 | 0.18 | 0.00 | 77 | 1006.6 |
| 20260507051000 | 13 | 279 | 6.4 | 12.9 | 0.00 | 0.18 | 0.00 | 77 | 1006.6 |
| 20260507050500 | 13 | 327 | 11.3 | 11.3 | 0.00 | 0.18 | 0.00 | 77 | 1006.6 |
| 20260507050000 | 13 | 305 | 8.0 | 11.3 | 0.00 | 0.18 | 0.00 | 78 | 1006.3 |
| 20260507045500 | 13 | 317 | 8.0 | 12.9 | 0.00 | 0.18 | 0.00 | 78 | 1006.3 |
| 20260507045000 | 14 | 316 | 6.4 | 9.7 | 0.00 | 0.18 | 0.00 | 78 | 1006.3 |
| 20260507044503 | 14 | 355 | 3.2 | 8.0 | 0.00 | 0.18 | 0.00 | 78 | 1007.0 |
| 20260507044000 | 14 | 271 | 6.4 | 16.1 | 0.00 | 0.18 | 0.00 | 78 | 1007.0 |
| 20260507043500 | 14 | 323 | 4.8 | 14.5 | 0.00 | 0.18 | 0.00 | 79 | 1007.0 |
| 20260507043000 | 14 | 281 | 6.4 | 12.9 | 0.00 | 0.18 | 0.00 | 80 | 1007.1 |
| 20260507042500 | 14 | 313 | 3.2 | 11.3 | 0.00 | 0.18 | 0.00 | 81 | 1007.1 |
| 20260507042000 | 14 | 329 | 6.4 | 16.1 | 0.00 | 0.18 | 0.00 | 81 | 1007.1 |
| 20260507041500 | 14 | 320 | 9.7 | 16.1 | 0.00 | 0.18 | 0.00 | 82 | 1006.7 |
| 20260507041000 | 15 | 312 | 9.7 | 12.9 | 0.00 | 0.18 | 0.00 | 82 | 1006.7 |
| 20260507040500 | 15 | 327 | 8.0 | 9.7 | 0.00 | 0.18 | 0.00 | 82 | 1006.7 |
| 20260507040000 | 15 | 336 | 3.2 | 11.3 | 0.00 | 0.18 | 0.00 | 82 | 1006.8 |
| 20260507035503 | 15 | 350 | 9.7 | 12.9 | 0.00 | 0.18 | 0.00 | 82 | 1006.8 |
| 20260507035000 | 15 | 311 | 9.7 | 11.3 | 0.00 | 0.18 | 0.00 | 82 | 1006.8 |
| 20260507034500 | 15 | 316 | 3.2 | 12.9 | 0.00 | 0.18 | 0.00 | 82 | 1006.7 |
| 20260507034000 | 15 | 338 | 8.0 | 16.1 | 0.00 | 0.18 | 0.00 | 82 | 1006.7 |
| 20260507033500 | 16 | 305 | 6.4 | 14.5 | 0.00 | 0.18 | 0.00 | 82 | 1006.7 |
| 20260507033000 | 16 | 288 | 3.2 | 20.9 | 0.00 | 0.18 | 0.00 | 82 | 1006.5 |
| 20260507032503 | 16 | 296 | 9.7 | 20.9 | 0.00 | 0.18 | 0.00 | 82 | 1006.5 |
| 20260507032000 | 17 | 332 | 16.1 | 22.5 | 0.05 | 0.18 | 0.00 | 81 | 1006.5 |
| 20260507031503 | 17 | 309 | 16.1 | 30.6 | 0.05 | 0.18 | 0.00 | 83 | 1005.9 |
| 20260507031000 | 18 | 300 | 8.0 | 9.7 | 0.10 | 0.18 | 0.00 | 88 | 1005.9 |
| 20260507030500 | 18 | 231 | 0.0 | 4.8 | 0.10 | 0.18 | 0.00 | 88 | 1005.9 |
| 20260507030000 | 18 | 181 | 3.2 | 6.4 | 0.10 | 0.18 | 0.00 | 88 | 1006.1 |
| 20260507025500 | 18 | 230 | 0.0 | 1.6 | 0.10 | 0.18 | 0.00 | 87 | 1006.1 |
| 20260507025000 | 18 | 254 | 1.6 | 4.8 | 0.10 | 0.18 | 0.00 | 87 | 1006.1 |
| 20260507024500 | 18 | 161 | 0.0 | 4.8 | 0.10 | 0.18 | 0.00 | 87 | 1006.0 |
| 20260507024000 | 18 | 180 | 0.0 | 6.4 | 0.10 | 0.18 | 0.00 | 86 | 1006.0 |